This is the latest recevied weather packets stored in our database for station/object GW4003. If no packets are shown the sender has not sent any weather packets the latest 10 day(s).
| Time | Temp. | Humidity | Pressure | Rain* | Wind** | Luminosity | Snow |
|---|---|---|---|---|---|---|---|
| 1777395656 | 11.11° C | 60% | 1016.9 hPa | 0 mm | - | - | - |
| 1777395353 | 11.11° C | 60% | 1016.8 hPa | 0 mm | - | - | - |
| 1777395050 | 11.67° C | 59% | 1016.6 hPa | 0 mm | - | - | - |
| 1777394749 | 11.67° C | 60% | 1016.6 hPa | 0 mm | - | - | - |
| 1777394447 | 11.11° C | 60% | 1016.6 hPa | 0 mm | - | - | - |
| 1777394144 | 11.11° C | 60% | 1016.5 hPa | 0 mm | - | - | - |
| 1777393841 | 11.11° C | 61% | 1016.5 hPa | 0 mm | - | - | - |
| 1777393540 | 10.56° C | 61% | 1016.5 hPa | 0 mm | - | - | - |
| 1777393237 | 10.56° C | 62% | 1016.4 hPa | 0 mm | - | - | - |
| 1777392934 | 10.56° C | 63% | 1016.4 hPa | 0 mm | - | - | - |
| 1777392632 | 9.44° C | 67% | 1016.4 hPa | 0 mm | - | - | - |
| 1777392332 | 8.89° C | 65% | 1016.3 hPa | 0 mm | - | - | - |
| 1777392021 | 8.33° C | 67% | 1016.3 hPa | 0 mm | - | - | - |
| 1777391718 | 8.33° C | 67% | 1016.4 hPa | 0 mm | - | - | - |
| 1777391414 | 8.33° C | 68% | 1016.3 hPa | 0 mm | - | - | - |
| 1777391112 | 7.78° C | 69% | 1016.3 hPa | 0 mm | - | - | - |
| 1777390808 | 8.33° C | 67% | 1016.3 hPa | 0 mm | - | - | - |
| 1777390587 | 8.33° C | 67% | 1016.3 hPa | 0 mm | - | - | - |
| 1777390284 | 8.89° C | 69% | 1016.3 hPa | 0 mm | - | - | - |
| 1777389981 | 8.89° C | 70% | 1016.3 hPa | 0 mm | - | - | - |
| 1777389678 | 7.78° C | 70% | 1016.3 hPa | 0 mm | - | - | - |
| 1777389374 | 8.33° C | 72% | 1016.3 hPa | 0 mm | - | - | - |
| 1777389072 | 7.78° C | 75% | 1016.3 hPa | 0 mm | - | - | - |
| 1777388769 | 7.22° C | 78% | 1016.3 hPa | 0 mm | - | - | - |
| 1777388466 | 6.11° C | 77% | 1016.3 hPa | 0 mm | - | - | - |
* Rain latest hour (hover to see other rain measurements)
** Current wind speed in m/s (hover to see current wind gust speed)